Bettles, AK

9:23 AM AKDT on July 16, 2019 (GMT -0800)
Bettles

Weather History for PABT - May, 2019

Change the Weather History Date:

Wednesday, May 8, 2019

  Actual Average Record
Temperature  
Mean Temperature 41 °F -  
Max Temperature 50 °F 48 °F 64 °F (2017)
Min Temperature 32 °F 30 °F 2 °F (1964)
Degree Days  
Heating Degree Days 24    
Moisture  
Dew Point 24 °F    
Average Humidity 49    
Maximum Humidity 65    
Minimum Humidity 34    
Precipitation  
Precipitation 0.00 in - - ()
Snow  
Snow 0.00 in - - ()
Snow Depth 27.00 in    
Sea Level Pressure  
Sea Level Pressure 29.93 in    
Wind  
Wind Speed 7 mph (ENE)    
Max Wind Speed 12 mph    
Max Gust Speed -    
Visibility 10 miles    
Events      
Averages and records for this station are not official NWS values.
T = Trace of Precipitation, MM = Missing Value Source: NWS Daily Summary

Daily Weather History Graph

Daily Weather History Graph

Search for Another Location

Airport or City:

Astronomy

May. 08, 2019 Rise Set
Actual Time 4:44 AM AKDT 11:23 PM AKDT
Civil Twilight 2:11 AM AKDT 1:30 AM AKDT
Nautical Twilight Sun does not set Sun does not set
Astronomical Twilight Sun does not set Sun does not set
Moon 6:34 AM AKDT (5/8) 3:45 AM AKDT (5/8)
Length of Visible Light 23h 18m
Length of Day
18h 39m
Waxing Crescent, 17% of the Moon is Illuminated
May 8
Waxing Crescent
May 11
First Quarter
May 18
Full
May 26
Last Quarter
Jun 3
New

Hourly Weather History & Observations

Time (AKDT) Temp. Windchill Dew Point Humidity Pressure Visibility Wind Dir Wind Speed Gust Speed Precip Events Conditions
12:53 AM 36.0 °F 28.0 °F 21.0 °F 55% 29.88 in 10.0 mi NNE 11.5 mph - N/A   Overcast
1:53 AM 36.0 °F 29.0 °F 21.0 °F 55% 29.89 in 10.0 mi NE 9.2 mph - N/A   Scattered Clouds
2:53 AM 36.0 °F 29.6 °F 21.0 °F 55% 29.90 in 10.0 mi NE 8.1 mph - N/A   Mostly Cloudy
3:53 AM 36.0 °F 29.6 °F 21.0 °F 55% 29.90 in 10.0 mi NE 8.1 mph - N/A   Overcast
4:53 AM 36.0 °F 31.1 °F 21.9 °F 57% 29.91 in 10.0 mi NNE 5.8 mph - N/A   Overcast
5:53 AM 36.0 °F 29.6 °F 21.9 °F 57% 29.90 in 10.0 mi NE 8.1 mph - N/A   Overcast
6:53 AM 36.0 °F 29.6 °F 21.9 °F 57% 29.90 in 10.0 mi NNE 8.1 mph - N/A   Overcast
7:53 AM 37.9 °F 34.4 °F 23.0 °F 55% 29.91 in 10.0 mi North 4.6 mph - N/A   Mostly Cloudy
8:53 AM 39.0 °F 34.8 °F 24.1 °F 55% 29.91 in 10.0 mi NNE 5.8 mph - N/A   Overcast
9:53 AM 39.9 °F 35.1 °F 24.1 °F 53% 29.91 in 10.0 mi North 6.9 mph - N/A   Mostly Cloudy
10:53 AM 43.0 °F 39.5 °F 24.1 °F 47% 29.91 in 10.0 mi NE 5.8 mph - N/A   Mostly Cloudy
11:53 AM 43.0 °F 40.3 °F 24.1 °F 47% 29.91 in 10.0 mi NNE 4.6 mph - N/A   Mostly Cloudy
12:53 PM 46.9 °F - 24.1 °F 41% 29.91 in 10.0 mi Calm Calm - N/A   Mostly Cloudy
1:53 PM 43.0 °F 40.3 °F 24.1 °F 47% 29.92 in 10.0 mi SSE 4.6 mph - N/A   Mostly Cloudy
2:53 PM 45.0 °F 42.6 °F 25.0 °F 46% 29.92 in 10.0 mi Variable 4.6 mph - N/A   Mostly Cloudy
3:53 PM 44.1 °F 40.8 °F 25.0 °F 47% 29.92 in 10.0 mi SE 5.8 mph - N/A   Mostly Cloudy
4:53 PM 46.9 °F - 25.0 °F 42% 29.92 in 10.0 mi Calm Calm - N/A   Mostly Cloudy
5:53 PM 46.0 °F 42.5 °F 26.1 °F 46% 29.93 in 10.0 mi South 6.9 mph - N/A   Mostly Cloudy
6:53 PM 46.0 °F 43.9 °F 26.1 °F 46% 29.94 in 10.0 mi SSE 4.6 mph - N/A   Mostly Cloudy
7:53 PM 46.0 °F 44.8 °F 26.1 °F 46% 29.95 in 10.0 mi South 3.5 mph - N/A   Mostly Cloudy
8:53 PM 46.0 °F 43.9 °F 27.0 °F 47% 29.96 in 10.0 mi SSW 4.6 mph - N/A   Scattered Clouds
9:53 PM 45.0 °F - 28.0 °F 52% 29.98 in 10.0 mi Calm Calm - N/A   Partly Cloudy
10:53 PM 41.0 °F 39.0 °F 27.0 °F 57% 30.00 in 10.0 mi SSE 3.5 mph - N/A   Partly Cloudy
11:53 PM 37.9 °F 33.5 °F 27.0 °F 65% 30.02 in 10.0 mi SE 5.8 mph - N/A   Partly Cloudy